EA5SW-14 Weather Reports


time (UTC)temp
C
wind
direction
speed
KPH
gust
KPH
rain 1hr
cm
rain 24hr
cm
rain mn
cm
humidity
%
barometer
mb
20260510183322 13 210 1.6 3.2 0.00 0.86 0.00 82 1007.9
20260510182258 13 237 1.6 3.2 0.00 0.86 0.00 81 1008.0
20260510181253 13 203 3.2 3.2 0.00 0.86 0.00 80 1007.8
20260510180249 13 220 3.2 6.4 0.00 0.86 0.00 79 1007.8
20260510175245 14 198 4.8 9.7 0.00 1.42 0.00 78 1007.7
20260510174241 14 232 6.4 11.3 0.00 1.70 0.00 76 1007.9
20260510173236 15 270 4.8 6.4 0.00 1.70 0.00 74 1007.9
20260510172232 15 170 6.4 11.3 0.00 1.70 0.00 75 1007.8
20260510171228 15 277 6.4 20.9 0.00 1.70 0.00 75 1007.7
20260510170244 15 187 6.4 11.3 0.00 1.70 0.00 76 1007.7
20260510165219 14 179 9.7 14.5 0.00 1.80 0.00 79 1007.9
20260510164215 15 293 11.3 17.7 0.00 1.96 0.00 77 1007.9
20260510163311 15 143 9.7 17.7 0.00 1.96 0.00 79 1007.7
20260510162307 15 185 8.0 12.9 0.00 1.96 0.00 81 1007.7
20260510161302 17 255 12.9 22.5 0.00 1.96 0.00 69 1007.5
20260510160258 17 240 6.4 11.3 0.00 1.96 0.00 69 1007.2
20260510155254 17 193 6.4 12.9 0.00 1.96 0.00 69 1007.0
20260510154250 18 217 9.7 14.5 0.00 1.96 0.00 66 1006.9
20260510153245 18 231 9.7 17.7 0.00 1.96 0.00 65 1006.8
20260510152241 17 246 9.7 17.7 0.00 1.96 0.00 69 1006.8
20260510151237 20 203 6.4 9.7 0.00 1.96 0.00 55 1006.5
20260510150232 20 218 3.2 6.4 0.00 1.96 0.00 53 1006.4
20260510145228 21 217 6.4 12.9 0.00 1.96 0.00 51 1006.3
20260510144223 21 271 1.6 6.4 0.00 1.96 0.00 52 1006.6
20260510143219 21 244 1.6 6.4 0.00 1.96 0.00 53 1006.6
20260510142215 21 129 3.2 6.4 0.00 1.96 0.00 53 1006.7
20260510141311 21 273 3.2 9.7 0.00 1.96 0.00 55 1006.9
20260510140307 20 203 6.4 12.9 0.00 1.96 0.00 55 1007.2
20260510135305 20 242 6.4 11.3 0.00 1.96 0.00 55 1007.2
20260510134258 20 167 8.0 17.7 0.00 1.96 0.00 56 1007.3
20260510133254 20 139 6.4 14.5 0.00 1.96 0.00 57 1007.5
20260510132250 20 191 4.8 9.7 0.00 1.96 0.00 56 1007.6
20260510131246 20 193 6.4 17.7 0.00 1.96 0.00 56 1007.5
20260510130242 20 197 6.4 12.9 0.00 1.96 0.00 57 1007.7
20260510125237 19 172 6.4 12.9 0.00 1.96 0.00 58 1007.7
20260510124233 19 165 4.8 9.7 0.00 1.96 0.00 59 1008.0
20260510123228 19 75 6.4 14.5 0.00 1.96 0.00 58 1008.1
20260510122244 18 215 6.4 12.9 0.00 1.96 0.00 58 1008.2
20260510121220 18 239 6.4 9.7 0.00 1.96 0.00 59 1008.3
20260510120215 18 203 9.7 17.7 0.00 1.96 0.00 57 1008.4
20260510115312 17 203 8.0 12.9 0.00 1.96 0.00 58 1008.5
20260510114309 17 225 6.4 12.9 0.00 1.96 0.00 60 1008.8
20260510113303 17 203 6.4 11.3 0.00 1.96 0.00 61 1008.7
20260510112259 17 225 4.8 9.7 0.00 1.96 0.00 62 1008.7
20260510111254 17 225 4.8 9.7 0.00 1.96 0.00 62 1008.8
20260510110310 17 235 6.4 12.9 0.00 1.96 0.00 60 1009.0
20260510105246 17 283 8.0 14.5 0.00 1.96 0.00 60 1009.0
20260510104242 17 204 6.4 24.1 0.00 1.98 0.00 61 1008.9
20260510103238 17 217 6.4 14.5 0.00 2.18 0.00 61 1009.0
20260510102234 17 225 6.4 12.9 0.00 2.31 0.00 61 1009.1
20260510101249 17 129 6.4 11.3 0.00 2.31 0.00 62 1009.0
20260510100225 17 203 4.8 12.9 0.00 2.31 0.00 62 1008.9
20260510095220 17 203 4.8 6.4 0.00 2.31 0.00 61 1009.0
20260510094216 16 225 8.0 17.7 0.00 2.31 0.00 66 1009.1
20260510093312 16 176 4.8 9.7 0.00 2.31 0.00 67 1009.2
20260510092328 16 203 6.4 11.3 0.00 2.31 0.00 70 1009.2
20260510091303 16 210 3.2 6.4 0.00 2.31 0.00 73 1009.2
20260510090304 15 186 4.8 9.7 0.00 2.31 0.00 72 1009.2
20260510085254 15 216 4.8 9.7 0.00 2.31 0.00 74 1009.2
20260510084250 14 135 1.6 3.2 0.00 2.31 0.00 80 1009.3
20260510083246 14 225 3.2 6.4 0.00 2.31 0.00 81 1009.4
20260510082242 13 217 3.2 6.4 0.00 2.31 0.00 83 1009.3
20260510081238 12 195 3.2 3.2 0.00 2.31 0.00 87 1009.3
20260510080233 12 293 1.6 6.4 0.00 2.31 0.00 91 1009.3
20260510075229 11 225 1.6 3.2 0.00 2.31 0.00 93 1009.3
20260510074225 11 203 1.6 3.2 0.00 2.31 0.00 94 1009.2
20260510073221 11 0.0 0.0 0.00 2.31 0.00 95 1009.2
20260510072216 10 203 0.0 3.2 0.00 2.31 0.00 95 1009.2
20260510071313 10 0.0 3.2 0.00 2.31 0.00 95 1009.2
20260510070307 10 225 0.0 3.2 0.00 2.31 0.00 96 1009.0
20260510065306 10 225 0.0 3.2 0.00 2.31 0.00 96 1008.9
20260510064259 10 0.0 3.2 0.00 2.31 0.00 96 1008.8
20260510063255 10 0.0 3.2 0.00 2.31 0.00 96 1009.0
20260510062251 9 213 1.6 3.2 0.00 2.31 0.00 96 1008.9
20260510061247 8 203 0.0 3.2 0.00 2.31 0.00 96 1008.8
20260510060242 8 225 0.0 3.2 0.00 2.31 0.00 96 1008.7
20260510055238 8 221 1.6 3.2 0.00 2.31 0.00 96 1008.8
20260510054234 8 225 3.2 6.4 0.00 2.31 0.00 96 1008.7
20260510053230 8 225 1.6 6.4 0.00 2.31 0.00 97 1008.6
20260510052226 8 225 1.6 3.2 0.00 2.31 0.00 96 1008.6
20260510051221 8 212 3.2 6.4 0.00 2.31 0.00 97 1008.4
20260510050217 8 203 1.6 3.2 0.00 2.31 0.00 97 1008.4
20260510045333 8 203 0.0 3.2 0.00 2.31 0.00 97 1008.5
20260510044308 8 203 1.6 3.2 0.00 2.31 0.00 97 1008.4
20260510043304 8 0.0 0.0 0.00 2.31 0.00 97 1008.5
20260510042359 7 0.0 0.0 0.00 2.31 0.00 96 1008.5
20260510041254 8 232 1.6 3.2 0.00 2.31 0.00 97 1008.5
20260510040310 8 225 3.2 3.2 0.00 2.31 0.00 96 1008.5
20260510035306 8 0.0 0.0 0.00 2.31 0.00 96 1008.4
20260510034241 8 195 3.2 6.4 0.00 2.31 0.00 96 1008.5
20260510033237 8 212 4.8 6.4 0.00 2.31 0.00 96 1008.4
20260510032253 8 222 3.2 6.4 0.00 2.31 0.00 96 1008.5
20260510031249 8 210 1.6 3.2 0.00 2.31 0.00 96 1008.4
20260510030225 8 210 1.6 3.2 0.00 2.31 0.00 96 1008.5
20260510025241 8 203 3.2 6.4 0.00 2.31 0.00 96 1008.4
20260510024216 8 225 4.8 6.4 0.00 2.31 0.00 96 1008.5
20260510023313 8 0.0 0.0 0.00 2.31 0.00 96 1008.5
20260510022308 8 0.0 0.0 0.00 2.31 0.00 96 1008.5
20260510021303 8 240 1.6 3.2 0.00 2.31 0.00 96 1008.4
20260510020259 8 225 1.6 6.4 0.00 2.31 0.00 96 1008.3
20260510015315 9 0.0 0.0 0.00 2.31 0.00 96 1008.4
20260510014311 9 0.0 0.0 0.00 2.31 0.00 96 1008.5
20260510013247 9 225 0.0 3.2 0.00 2.31 0.00 96 1008.5
20260510012242 9 208 4.8 6.4 0.00 2.31 0.00 96 1008.5
20260510011258 10 187 3.2 6.4 0.00 2.31 0.00 96 1008.5
20260510010254 10 215 1.6 3.2 0.00 2.31 0.00 96 1008.8
20260510005230 10 225 3.2 6.4 0.00 2.31 0.00 96 1008.8
20260510004225 10 203 3.2 6.4 0.00 2.31 0.00 96 1008.8
20260510003221 10 0.0 0.0 0.00 2.31 0.00 96 1009.0
20260510002217 10 0.0 0.0 0.00 2.31 0.00 96 1009.3
20260510001313 10 0.0 0.0 0.00 2.31 0.00 96 1009.3
20260510000311 10 203 1.6 3.2 0.00 2.31 0.00 96 1009.3
20260509235307 10 203 1.6 6.4 0.00 2.31 0.00 96 1009.4
20260509234300 10 218 3.2 3.2 0.00 2.31 0.00 96 1009.5
20260509233256 10 195 3.2 6.4 0.00 2.31 0.00 96 1009.5
20260509232252 10 193 3.2 3.2 0.00 2.31 0.00 96 1009.5
20260509231247 11 225 1.6 3.2 0.00 2.31 0.00 96 1009.3
20260509230303 11 203 1.6 3.2 0.00 2.31 0.00 96 1009.4
20260509225239 11 0.0 0.0 0.00 2.31 0.00 96 1009.5
20260509224235 11 180 0.0 3.2 0.00 2.31 0.00 96 1009.3
20260509223231 11 0.0 0.0 0.00 2.31 0.00 96 1009.3
20260509222226 11 0.0 0.0 0.00 2.31 0.00 96 1009.5
20260509221223 11 0.0 0.0 0.00 2.31 0.00 96 1009.3
20260509220218 11 0.0 0.0 0.00 2.31 0.00 96 1009.2
20260509215314 12 0.0 0.0 0.00 2.31 2.31 96 1009.3
20260509214310 12 0.0 0.0 0.00 2.31 2.31 96 1009.3
20260509213306 12 0.0 0.0 0.00 2.31 2.31 96 1009.4
20260509212322 12 0.0 0.0 0.03 2.31 2.31 96 1009.4
20260509211257 12 0.0 0.0 0.56 2.31 2.31 96 1009.3
20260509210253 12 0.0 0.0 0.86 2.31 2.31 96 1009.3
20260509205249 12 0.0 0.0 0.86 2.31 2.31 96 1009.1
20260509204245 12 0.0 0.0 0.86 2.31 2.31 95 1009.0
20260509203300 12 289 1.6 3.2 0.86 2.31 2.31 95 1009.0
20260509202236 12 308 3.2 6.4 0.84 2.29 2.29 95 1009.0
20260509201232 12 281 9.7 17.7 0.30 1.75 1.75 95 1008.8
20260509200248 13 90 0.0 3.2 0.00 1.45 1.45 95 1007.7
20260509195243 13 86 1.6 3.2 0.00 1.45 1.45 95 1007.7
20260509194218 13 83 3.2 3.2 0.00 1.45 1.45 94 1007.8
20260509193334 13 94 1.6 3.2 0.00 1.45 1.45 94 1007.7
20260509192350 13 102 1.6 3.2 0.00 1.45 1.45 94 1007.3
20260509191306 12 0.0 0.0 0.00 1.45 1.45 93 1007.3
20260509190301 12 0.0 0.0 0.00 1.45 1.45 93 1007.3
20260509185257 12 0.0 3.2 0.53 1.45 1.45 93 1007.2
20260509184253 12 0.0 0.0 0.84 1.45 1.45 92 1007.1